When you browse on this site, cookies collect data to enhance your experience and personalize the content and advertising you see.
Visit our Privacy Policy to learn more. By continuing to use the site, you agree to this use of cookies and data.
  • In France
  • List of Countries
  • For 7 days
  • Water Temperature
  • Satellite Maps
  • Weather Map
  • Weather Widgets
  • user-avatar
    Login

    Hourly Weather Dolny Kubin

    Today, 19 June, Wednesday

    Time Temperature Precipitation Wind Pressure Humidity
    00:00 +15°C° 0 mm 1 mps 703 mmHg 93%
    01:00 +15°C° 0 mm 1 mps 703 mmHg 93%
    02:00 +15°C° 0 mm 1 mps 703 mmHg 93%
    03:00 +15°C° 0 mm 1 mps 703 mmHg 93%
    04:00 +15°C° 0 mm 1 mps 702 mmHg 93%
    05:00 +16°C° 0 mm 1 mps 703 mmHg 90%
    06:00 +17°C° 0 mm 0 mps 703 mmHg 87%
    07:00 +19°C° 0 mm 0 mps 703 mmHg 84%
    08:00 +21°C° 0.5 mm 0 mps 703 mmHg 78%
    09:00 +22°C° 0.5 mm 0 mps 703 mmHg 72%
    10:00 +24°C° 0.5 mm 0 mps 703 mmHg 66%
    11:00 +26°C° 0.6 mm 1 mps 703 mmHg 65%
    12:00 +26°C° 0.6 mm 1 mps 703 mmHg 64%
    13:00 +26°C° 0.6 mm 2 mps 703 mmHg 63%
    14:00 +25°C° 0.7 mm 1 mps 702 mmHg 66%
    15:00 +25°C° 0.7 mm 1 mps 702 mmHg 70%
    16:00 +24°C° 0.7 mm 1 mps 702 mmHg 74%
    17:00 +23°C° 0.6 mm 1 mps 701 mmHg 78%
    18:00 +22°C° 0.6 mm 1 mps 701 mmHg 82%
    19:00 +21°C° 0.6 mm 1 mps 701 mmHg 86%
    20:00 +20°C° 0.1 mm 1 mps 701 mmHg 88%
    21:00 +19°C° 0.1 mm 1 mps 701 mmHg 89%
    22:00 +19°C° 0.1 mm 1 mps 701 mmHg 90%
    23:00 +18°C° 0 mm 1 mps 701 mmHg 91%

    Tomorrow, 20 June, Thursday

    Time Temperature Precipitation Wind Pressure Humidity
    00:00 +16°C° 0 mm 1 mps 701 mmHg 91%
    01:00 +16°C° 0 mm 1 mps 700 mmHg 92%
    02:00 +16°C° 0 mm 1 mps 700 mmHg 92%
    03:00 +16°C° 0 mm 1 mps 700 mmHg 92%
    04:00 +15°C° 0 mm 1 mps 700 mmHg 92%
    05:00 +16°C° 0 mm 0 mps 701 mmHg 88%
    06:00 +18°C° 0 mm 0 mps 701 mmHg 84%
    07:00 +20°C° 0 mm 0 mps 702 mmHg 81%
    08:00 +23°C° 0.9 mm 1 mps 702 mmHg 80%
    09:00 +23°C° 0.9 mm 1 mps 702 mmHg 79%
    10:00 +24°C° 0.9 mm 1 mps 702 mmHg 78%
    11:00 +24°C° 1.5 mm 1 mps 702 mmHg 78%
    12:00 +24°C° 1.5 mm 1 mps 702 mmHg 77%
    13:00 +24°C° 1.5 mm 1 mps 702 mmHg 76%
    14:00 +24°C° 0.9 mm 1 mps 701 mmHg 76%
    15:00 +24°C° 0.9 mm 1 mps 701 mmHg 76%
    16:00 +22°C° 0.9 mm 0 mps 701 mmHg 76%
    17:00 +21°C° 0.3 mm 0 mps 701 mmHg 80%
    18:00 +20°C° 0.3 mm 0 mps 701 mmHg 84%
    19:00 +19°C° 0.3 mm 0 mps 701 mmHg 88%
    20:00 +20°C° 0.3 mm 1 mps 701 mmHg 89%
    21:00 +19°C° 0.3 mm 1 mps 701 mmHg 91%
    22:00 +18°C° 0.3 mm 1 mps 701 mmHg 92%
    23:00 +18°C° 0 mm 1 mps 701 mmHg 92%

    Day after tomorrow, 21 June, Friday

    Time Temperature Precipitation Wind Pressure Humidity
    00:00 +15°C° 0 mm 0 mps 701 mmHg 92%
    01:00 +15°C° 0 mm 0 mps 701 mmHg 92%
    02:00 +15°C° 0 mm 0 mps 701 mmHg 92%
    03:00 +14°C° 0 mm 0 mps 701 mmHg 92%
    04:00 +14°C° 0 mm 0 mps 701 mmHg 92%
    05:00 +16°C° 0 mm 0 mps 702 mmHg 89%
    06:00 +18°C° 0 mm 0 mps 702 mmHg 86%
    07:00 +20°C° 0 mm 0 mps 703 mmHg 83%
    08:00 +21°C° 1.4 mm 0 mps 703 mmHg 81%
    09:00 +22°C° 1.4 mm 0 mps 703 mmHg 80%
    10:00 +24°C° 1.4 mm 1 mps 703 mmHg 79%
    11:00 +24°C° 1.9 mm 1 mps 703 mmHg 79%
    12:00 +24°C° 1.9 mm 1 mps 703 mmHg 80%
    13:00 +24°C° 1.9 mm 1 mps 703 mmHg 80%
    14:00 +24°C° 1.1 mm 1 mps 703 mmHg 82%
    15:00 +24°C° 1.1 mm 1 mps 703 mmHg 84%
    16:00 +23°C° 1.1 mm 1 mps 702 mmHg 86%
    17:00 +22°C° 0.4 mm 1 mps 702 mmHg 89%
    18:00 +21°C° 0.4 mm 1 mps 702 mmHg 92%
    19:00 +20°C° 0.4 mm 1 mps 702 mmHg 94%
    20:00 +19°C° 0.1 mm 1 mps 702 mmHg 95%
    21:00 +19°C° 0.1 mm 1 mps 702 mmHg 96%
    22:00 +18°C° 0.1 mm 1 mps 703 mmHg 97%
    23:00 +16°C° 0 mm 1 mps 702 mmHg 97%

    22 June, Saturday

    Time Temperature Precipitation Wind Pressure Humidity
    00:00 +16°C° 0 mm 1 mps 702 mmHg 97%
    01:00 +15°C° 0 mm 1 mps 702 mmHg 97%
    02:00 +15°C° 0.3 mm 1 mps 702 mmHg 97%
    03:00 +15°C° 0.3 mm 1 mps 702 mmHg 98%
    04:00 +15°C° 0.3 mm 1 mps 702 mmHg 98%
    05:00 +16°C° 0.1 mm 1 mps 703 mmHg 97%
    06:00 +18°C° 0.1 mm 1 mps 703 mmHg 96%
    07:00 +18°C° 0.1 mm 2 mps 703 mmHg 95%
    08:00 +19°C° 0.3 mm 2 mps 703 mmHg 89%
    09:00 +20°C° 0.3 mm 2 mps 704 mmHg 83%
    10:00 +21°C° 0.3 mm 2 mps 704 mmHg 78%
    11:00 +23°C° 0.6 mm 2 mps 704 mmHg 77%
    12:00 +23°C° 0.6 mm 2 mps 704 mmHg 76%
    13:00 +23°C° 0.6 mm 1 mps 703 mmHg 75%
    14:00 +23°C° 1.1 mm 1 mps 703 mmHg 81%
    15:00 +22°C° 1.1 mm 1 mps 703 mmHg 86%
    16:00 +21°C° 1.1 mm 1 mps 702 mmHg 92%
    17:00 +20°C° 0.5 mm 1 mps 702 mmHg 93%
    18:00 +20°C° 0.5 mm 1 mps 702 mmHg 94%
    19:00 +19°C° 0.5 mm 1 mps 702 mmHg 95%
    20:00 +18°C° 0.1 mm 1 mps 702 mmHg 95%
    21:00 +16°C° 0.1 mm 1 mps 702 mmHg 95%
    22:00 +16°C° 0.1 mm 1 mps 702 mmHg 95%
    23:00 +15°C° 0 mm 1 mps 702 mmHg 95%

    23 June, Sunday

    Time Temperature Precipitation Wind Pressure Humidity
    00:00 +15°C° 0 mm 1 mps 701 mmHg 95%
    01:00 +14°C° 0 mm 1 mps 701 mmHg 95%
    02:00 +13°C° 0 mm 0 mps 701 mmHg 95%
    03:00 +13°C° 0 mm 0 mps 701 mmHg 95%
    04:00 +13°C° 0 mm 0 mps 701 mmHg 95%
    05:00 +15°C° 0 mm 0 mps 701 mmHg 93%
    06:00 +16°C° 0 mm 0 mps 702 mmHg 91%
    07:00 +17°C° 0 mm 0 mps 702 mmHg 89%
    08:00 +19°C° 0.6 mm 1 mps 702 mmHg 91%
    09:00 +19°C° 0.6 mm 1 mps 702 mmHg 92%
    10:00 +19°C° 0.6 mm 1 mps 703 mmHg 94%
    11:00 +18°C° 0.5 mm 2 mps 703 mmHg 92%
    12:00 +19°C° 0.5 mm 2 mps 703 mmHg 90%
    13:00 +19°C° 0.5 mm 3 mps 703 mmHg 89%
    14:00 +18°C° 0.1 mm 2 mps 703 mmHg 88%
    15:00 +17°C° 0.1 mm 2 mps 703 mmHg 86%
    16:00 +17°C° 0.1 mm 2 mps 704 mmHg 85%
    17:00 +16°C° 0 mm 2 mps 704 mmHg 87%
    18:00 +16°C° 0 mm 1 mps 704 mmHg 88%
    19:00 +15°C° 0 mm 1 mps 704 mmHg 89%
    20:00 +14°C° 0 mm 1 mps 704 mmHg 91%
    21:00 +14°C° 0 mm 1 mps 705 mmHg 93%
    22:00 +13°C° 0 mm 1 mps 705 mmHg 95%
    23:00 +13°C° 0 mm 1 mps 705 mmHg 96%

    24 June, Monday

    Time Temperature Precipitation Wind Pressure Humidity
    00:00 +13°C° 0 mm 1 mps 706 mmHg 96%
    01:00 +13°C° 0 mm 1 mps 706 mmHg 97%
    02:00 +13°C° 0.1 mm 1 mps 706 mmHg 97%
    03:00 +12°C° 0.1 mm 1 mps 706 mmHg 97%
    04:00 +12°C° 0.1 mm 1 mps 706 mmHg 97%
    05:00 +13°C° 0.1 mm 1 mps 707 mmHg 96%
    06:00 +13°C° 0.1 mm 1 mps 707 mmHg 94%
    07:00 +13°C° 0.1 mm 1 mps 707 mmHg 93%
    08:00 +15°C° 0 mm 2 mps 708 mmHg 84%
    09:00 +16°C° 0 mm 2 mps 708 mmHg 74%
    10:00 +18°C° 0 mm 3 mps 709 mmHg 65%
    11:00 +19°C° 0 mm 3 mps 709 mmHg 60%
    12:00 +20°C° 0 mm 3 mps 709 mmHg 54%
    13:00 +20°C° 0 mm 3 mps 709 mmHg 48%
    14:00 +20°C° 0 mm 3 mps 709 mmHg 49%
    15:00 +20°C° 0 mm 3 mps 709 mmHg 50%
    16:00 +20°C° 0 mm 3 mps 709 mmHg 51%
    17:00 +19°C° 0 mm 2 mps 709 mmHg 59%
    18:00 +17°C° 0 mm 2 mps 709 mmHg 67%
    19:00 +16°C° 0 mm 1 mps 709 mmHg 75%
    20:00 +14°C° 0 mm 1 mps 709 mmHg 81%
    21:00 +13°C° 0 mm 1 mps 709 mmHg 87%
    22:00 +11°C° 0 mm 1 mps 709 mmHg 93%
    23:00 +11°C° 0 mm 1 mps 709 mmHg 94%
    Show more